Location: Boiro
(42.6475°N, 8.8834°W)
Time: 21:12:15
(UTC+02:00)

AO-73 - Pass Details

Date: 30 April 2024
Orbit: 560 x 625 km, 97.7° (Epoch: 20 May)

Event Time Altitude Azimuth Distance (km) Brightness Sun altitude
Rises 06:58:28 0° 356° (N) 2,925 ? -6.3°
Reaches altitude 10° 07:01:16 10° 337° (NNW) 2,013 ? -5.8°
Maximum altitude 07:04:10 18° 296° (WNW) 1,562 ? -5.4°
Drops below altitude 10° 07:07:03 10° 254° (WSW) 1,996 ? -4.9°
Enters shadow 07:08:15 - 244° (WSW) 2,356 ? -4.7°
